NOAA 16 DEB, 41052

Orbit data source: Space-Track

NOAA 16 DEB, 41052 is space debris in SSO originally from a launch on Thu, 21 Sep 2000 UTC launched from the Air Force Western Test Range (AFWTR). Debris objects in space refer to the collection of defunct objects orbiting the Earth. Examples of debris include non-operational satellites, rocket bodies, and fragments generated from explosions, collisions, or faulty payload assembly.

Loading next visibility...
Identifier
41052, 2000-055K
Orbit
SSO
Country
Flag of USUS
Related business
Manufacturer
Unknown
Mission
Spacecraft
Bus & Motor
Unknown
Mass
Unknown
Launch date (UTC)
2000-09-21 (25 years ago)
Launch vehicle
Unknown
Launch site
Air Force Western Test Range (AFWTR)
Object type
Payload
Rocket body
Debris
Shape & HBR
Unknown
Radar Cross Section
Small (<0.1 m²)

Expand to show TLE details & history
Last TLE update: 18 hours ago

TLE from 18 hours ago
0 NOAA 16 DEB
1 41052U 00055K   25260.60211235  .00000537  00000-0  30139-3 0  9991
2 41052  98.6178 279.1325 0162595 242.9963 115.4527 14.08166354503332
Epoch: 2025-09-17T14:27Z
TLE epoch observation values (Epoch: 2025-09-17T14:27:02.507Z)
Latitude
-0.00001°
Longitude
65.59635°
Altitude
920.728 km
Speed
7.365 km/s
True Right ascension
18h 36m 31s
True Declination
0° 00' 00"
Sunlit
Object was in daylight at epoch
Visualization orbit readout
Latitude
Unknown
Longitude
Unknown
Altitude
Unknown
Speed
Unknown
Apparent Right ascension
Unknown
Apparent Declination
Unknown
Sunlit
N/A
Visualization observer readout
Local Sidereal Time
01:22:15
Azimuth
Unknown
Elevation
Unknown
Doppler factor
Unknown
Orbital elements
Apogee altitude
980.557 km
Perigee altitude
745.088 km
Semi-major axis
7,240.959 km
Eccentricity
0.01626
Inclination
98.6178°
RAAN
279.1325°
Arg. of periapsis
242.9963°
True anomaly
117.12025°
Mean anomaly
115.4527°
Eccentric anomaly
116.28795°
Mean motion
3.52248 °/min
Orbital period
102.2 mins
BSTAR
0.00030139
Loading maneuver chart data...
Computing Atmospheric mass density...
Loading historical data...
Loading historical data...
Loading historical data...
Loading historical data...
Loading historical data...
Loading historical data...
Loading historical data...

Documentation

Showing up to 5 results
|